Погода в Погосте

Россия / Рязанская область     55°00′26″N   41°09′28″E
темп.,
°C
ветер,
м/с
пор.,
м/с
влажн.,
%
обл.,
%
осадки,
мм/ч
давл.,
гПа
погр.,
м
14 апреля, ср
ср1400:00+11юв3126245 0.0 1025224
03:00+9юв3106973 0.0 1024175
06:00+8юв387480 0.0 1024151
09:00+14ююв4751100 0.0 1023369
12:00+18ююв4636100 0.0 10221002
15:00+19ююв4531100 0.0 10211522
18:00+16ююв2543100 0.0 1020104
21:00+12юв2253100 0.0 102023
15 апреля, чт
чт1500:00+10юв2261100 0.0 101922
03:00+9юв2265100 0.0 101916
06:00+8вюв2270100 0.0 101826
09:00+13вюв235189 0.0 1018271
12:00+17вюв2338100 0.0 1017781
15:00+19в2334100 0.0 10171421
18:00+16св374896 0.0 1016170
21:00+11всв3863100 0.0 1017138
16 апреля, пт
пт1600:00+10св51279100 0.0 1018366
03:00+8св5128997 0.0 1019393
06:00+7всв61390100 0.0 1020436
09:00+10всв61174100 0.2 1021515
12:00+14всв6859100 0.2 1022848
15:00+15всв675588 0.3 10221135
18:00+13всв6964100 0.0 1023848
21:00+10всв51371100 0.0 1024594
17 апреля, сб
сб1700:00+8всв51270100 0.0 1025444
03:00+5всв5126772 0.0 1026364
06:00+4всв5136779 0.0 1027434
09:00+8всв6104852 0.0 1028702
12:00+12всв69325 0.0 10281288
15:00+13всв68305 0.0 10271593
18:00+11всв59405 0.0 10281162
21:00+7всв312585 0.0 1029334
18 апреля, вс
вс1800:00+5всв310695 0.0 1030227
03:00+3всв3107574 0.0 1030198
06:00+3всв39795 0.0 1031212
09:00+9в465598 0.0 1031673
12:00+12в46425 0.0 10301639
15:00+13всв463826 0.0 10291898
18:00+12всв474733 0.0 1030654
21:00+8всв41160100 0.0 1031344